Location: Arbon
(43.0005°N, 0.7472°E)
Time: 22:24:07
(UTC+00:00)

Courier 1B Rocket - Pass Details

Date: 05 December 2020
Orbit: 920 x 1202 km, 28.2° (Epoch: 23 January)

Event Time Altitude Azimuth Distance (km) Brightness Sun altitude
Exits shadow 05:18:27 13° 231° (SW) 2,871 7.1 -20.3°
Maximum altitude 05:23:42 26° 183° (S) 2,143 6.9 -19.3°
Drops below altitude 10° 05:29:54 10° 130° (SE) 3,120 8.6 -18.2°
Sets 05:33:14 0° 118° (ESE) 4,066 9.8 -17.6°
